Probability
0 0 0 0 0 0 0 0 0 0 0 0 0 0 0 0 0 0 0 0 0 0 0 0 0 0 0 0 0 0 1 1 1 1 1 1 0 0 0 1 2 4 4
0 0 0 0 0 0 0 0 0 0 0 0 0 0 0 0 0 0 0 0 0 0 0 0 0 0 0 0 0 0 0 0 0 0 0 0 0 0 0 1 2 4 5
0 0 0 0 0 0 0 0 0 0 0 0 0 0 0 0 0 0 0 0 0 0 0 0 0 0 0 0 0 0 0 0 0 0 0 0 0 0 0 1 3 4 6
0 0 0 0 0 0 0 0 0 0 0 0 0 0 0 0 0 0 0 0 0 0 0 0 0 0 0 0 0 0 0 0 0 0 1 1 0 0 0 2 3 4 5
0 0 0 0 0 0 0 0 0 0 0 0 0 0 0 0 0 0 0 0 0 0 0 0 0 0 0 0 0 0 0 0 0 1 2 2 1 0 0 1 3 4 4
0 0 0 0 0 0 0 0 0 0 0 0 0 0 0 0 0 0 0 0 0 0 0 0 0 0 0 0 0 0 0 0 0 1 2 2 1 0 0 1 3 5 5
0 0 0 0 0 0 0 0 0 0 0 0 0 0 0 0 0 0 0 0 0 0 0 0 0 0 0 0 0 0 0 0 0 1 1 1 0 1 1 2 4 6 7
0 0 0 0 0 0 0 0 0 0 0 0 0 0 0 0 0 0 0 0 0 0 0 0 0 0 0 0 0 0 0 0 0 0 0 0 0 1 2 4 5 7 8
0 0 0 0 0 0 0 0 0 0 0 0 0 0 0 0 0 0 0 0 0 0 0 0 0 0 0 0 0 0 0 0 0 0 0 0 0 1 3 4 6 7 7
0 0 0 0 0 0 0 0 0 0 0 0 0 0 0 0 0 0 0 0 0 0 0 0 0 0 0 0 0 0 0 0 0 1 1 1 1 1 2 4 5 6 6
0 0 0 0 0 0 0 0 0 0 0 0 0 0 0 0 0 0 0 0 0 0 0 0 0 0 0 0 0 0 0 0 1 2 2 2 2 2 2 3 4 5 5
0 0 0 0 0 0 0 0 0 0 0 0 0 0 0 0 0 0 0 0 0 0 0 0 0 0 0 0 0 0 0 0 1 2 2 3 3 3 2 2 2 3 2
0 0 0 0 0 0 0 0 0 0 0 0 0 0 0 0 0 0 0 0 0 0 0 0 0 0 0 0 0 0 0 0 0 1 1 1 2 2 1 0 1 1 1
0 0 0 0 0 0 0 0 0 0 0 0 0 0 0 0 0 0 0 0 0 0 0 0 0 0 0 0 0 0 0 0 0 0 0 0 1 1 0 0 0 0 0
0 0 0 0 0 0 0 0 0 0 0 0 0 0 0 0 0 0 0 0 0 0 0 0 0 0 0 0 0 0 0 0 0 0 0 0 0 0 0 0 0 0 0
0 0 0 0 0 0 0 0 0 0 0 0 0 0 0 0 0 0 0 0 0 0 0 0 0 0 0 0 0 0 0 0 0 0 0 0 0 0 0 0 0 0 0
0 0 0 0 0 0 0 0 0 0 0 0 0 0 0 0 0 0 0 0 0 0 0 0 0 0 0 0 0 0 0 0 0 0 0 0 0 0 0 0 0 0 0
0 0 0 0 0 0 0 0 0 0 0 0 0 0 0 0 0 0 0 0 0 0 0 0 0 0 0 0 0 0 0 0 0 0 0 0 0 0 0 0 0 0 0
0 0 0 0 0 0 0 0 0 0 0 0 0 0 0 0 0 0 0 0 0 0 0 0 0 0 0 0 0 0 0 0 0 0 0 0 0 0 0 0 0 0 0
0 0 0 0 0 0 0 0 0 0 0 0 0 0 0 0 0 0 0 0 0 0 0 0 0 0 0 0 0 0 0 0 0 0 0 0 0 0 0 0 0 0 0
0 0 0 0 0 0 0 0 0 0 0 0 0 0 0 0 0 0 0 0 0 0 0 0 0 0 0 0 0 0 0 0 0 0 0 0 0 0 0 0 0 0 0
0 0 0 0 0 0 0 0 0 0 0 0 0 0 0 0 0 0 0 0 0 0 0 0 0 0 0 0 0 0 0 0 0 0 0 0 0 0 0 0 0 0 0
0 0 0 0 0 0 0 0 0 0 0 0 0 0 0 0 0 0 0 0 0 0 0 0 0 0 0 0 0 0 0 0 0 0 0 0 0 0 0 0 0 0 0
0 0 0 0 0 0 0 0 0 0 0 0 0 0 0 0 0 0 0 0 0 0 0 0 0 0 0 0 0 0 0 0 0 0 0 0 0 0 0 0 0 0 0
0 0 0 0 0 0 0 0 0 0 0 0 0 0 0 0 0 0 0 0 0 0 0 0 0 0 0 0 0 0 0 0 0 0 0 0 0 0 0 0 0 0 0
0 0 0 0 0 0 0 0 0 0 0 0 0 0 0 0 0 0 0 0 0 0 0 0 0 0 0 0 0 0 0 0 0 0 0 0 0 0 0 0 0 0 0
Wind_Speed
2 2 2 3 3 2 3 3 3 4 4 4 3 3 3 3 2 1 1 3 5 5 5 6 6 6 6 6 6 6 6 6 5 5 6 6 6 6 5 6 6 7 7
2 3 3 3 4 3 3 3 3 3 3 3 4 3 3 3 2 2 2 2 4 5 5 5 6 6 6 6 6 6 6 6 6 6 6 6 6 6 5 5 6 7 8
3 3 3 4 3 3 4 3 4 3 4 4 4 4 3 3 2 2 2 2 2 4 5 6 6 6 6 6 6 6 6 6 6 6 6 6 5 5 5 6 7 7 8
4 4 3 3 4 4 4 3 3 3 3 3 3 3 3 3 4 3 3 3 2 3 4 7 7 7 7 6 6 6 6 6 6 6 6 5 5 5 4 5 7 8 8
5 4 3 3 4 4 4 3 3 3 3 3 3 3 4 4 3 5 4 4 3 3 3 6 8 8 8 8 7 6 6 6 6 6 5 5 5 5 5 6 7 7 7
5 4 4 4 4 4 4 4 3 3 2 2 3 4 4 4 4 4 4 4 4 4 4 5 4 6 10 9 9 8 7 6 6 5 5 5 5 5 6 7 7 7 6
5 5 4 4 4 4 4 4 3 4 4 3 3 3 4 4 5 4 4 4 5 5 5 5 4 4 4 9 10 10 10 8 8 7 6 6 6 6 6 6 6 5 5
5 4 4 3 4 4 5 5 4 3 3 4 3 3 3 5 4 5 4 5 5 5 5 5 5 5 4 4 7 11 11 10 9 8 8 7 6 5 5 5 5 5 4
5 4 4 4 4 4 3 4 4 4 3 4 3 3 3 0 2 4 4 5 5 4 4 4 5 5 5 4 4 8 11 10 10 8 8 7 7 6 5 5 5 4 3
4 4 4 4 4 3 4 4 4 3 4 3 3 3 2 2 2 2 4 4 5 5 5 5 5 5 5 4 5 9 10 11 10 9 8 8 7 7 6 5 4 3 2
3 3 4 4 4 3 4 4 4 4 3 3 2 2 3 3 3 3 1 3 4 3 4 4 3 4 4 4 4 7 10 10 10 9 9 9 8 7 5 4 4 3 3
2 2 3 3 3 3 3 3 4 5 4 4 4 3 3 2 2 2 2 1 2 3 3 3 4 4 4 4 5 9 10 10 10 10 10 9 8 8 6 5 4 4 4
1 1 2 2 2 2 3 3 4 4 3 4 4 3 3 2 1 2 2 1 2 2 3 3 3 3 4 4 4 9 9 10 10 10 9 9 9 9 8 7 6 6 6
2 1 2 2 2 3 3 3 3 3 3 4 4 3 3 2 2 2 2 2 2 3 3 3 2 3 3 3 5 6 5 9 9 9 9 9 9 10 10 9 8 7 6
2 2 2 2 2 3 3 3 3 2 3 3 3 3 3 2 2 2 2 2 3 1 2 3 3 3 3 2 5 4 4 8 9 9 9 9 9 9 10 10 9 8 7
2 3 2 2 2 2 3 3 2 2 3 3 2 4 3 2 2 2 2 2 2 3 0 2 2 2 3 4 6 4 4 9 9 10 10 9 10 9 9 9 10 9 8
3 3 3 3 3 2 2 3 2 3 3 3 3 3 3 2 2 2 2 2 2 2 1 2 2 2 3 3 4 4 3 3 4 9 9 9 9 9 10 10 10 9 8
3 3 3 3 3 2 2 3 3 3 3 3 2 3 2 2 3 2 2 2 1 1 2 1 2 2 3 3 3 3 4 4 4 7 9 9 9 9 10 10 10 10 9
3 3 4 3 3 2 2 2 3 3 3 2 2 2 1 2 2 2 2 1 1 1 1 1 2 2 2 2 3 4 4 3 5 6 8 8 9 10 10 10 10 10 10
4 4 3 3 3 3 3 3 3 3 2 2 2 2 1 1 1 0 1 1 1 1 1 1 1 2 2 3 2 3 4 3 4 5 6 6 9 10 11 11 11 11 10
4 4 4 3 2 3 3 3 3 3 2 1 1 1 0 0 0 1 0 0 1 1 1 1 1 2 2 3 3 2 3 4 4 3 3 4 4 4 6 9 11 11 11
3 3 4 4 3 2 4 5 4 3 2 2 0 1 1 1 2 3 2 1 0 1 1 1 1 2 3 3 2 2 2 3 4 3 2 4 3 4 5 4 8 11 11
4 4 3 3 3 2 4 4 5 4 3 2 1 1 1 1 2 1 3 3 3 3 2 2 2 3 3 3 2 2 2 3 4 4 3 5 3 4 5 6 11 11 12
4 4 3 3 3 2 4 4 4 3 2 1 2 2 2 1 1 1 1 2 2 3 3 2 3 4 4 4 3 3 4 4 4 3 2 3 4 4 6 5 9 10 11
4 3 3 4 3 3 4 4 4 2 1 1 1 2 2 2 3 2 0 1 3 4 4 5 6 6 7 7 5 2 2 3 4 4 2 2 3 4 4 4 6 9 10
4 4 3 3 4 3 4 5 5 2 2 1 1 2 3 3 3 2 1 1 3 4 4 5 5 6 5 5 6 3 2 2 3 4 3 2 3 3 5 3 3 4 6
Wind_Direction
45 27 14 10 6 9 17 18 25 31 30 32 45 64 69 70 75 66 36 69 69 66 71 74 77 74 74 73 70 67 71 65 63 63 66 72 71 69 68 82 108 117 120
51 39 23 17 12 11 21 33 35 37 33 36 36 44 64 73 68 63 42 42 56 58 61 67 72 75 74 71 67 65 67 63 61 64 66 67 68 69 68 84 104 113 117
52 50 37 24 9 13 27 35 33 36 38 38 37 39 48 59 64 61 54 30 26 46 54 59 66 68 74 73 65 65 65 59 55 57 61 61 64 68 75 86 99 111 113
51 54 45 26 12 22 28 35 32 36 29 30 34 33 36 46 51 58 59 43 34 32 38 52 55 58 64 67 65 68 68 63 57 54 56 54 54 55 81 99 104 106 111
48 57 48 26 24 32 28 32 37 39 34 25 39 43 34 40 38 52 51 45 39 38 35 45 48 50 54 56 56 63 68 65 60 54 55 53 51 49 75 97 109 110 111
48 55 53 33 33 37 28 28 37 34 39 31 56 48 30 30 36 43 44 40 38 42 44 43 36 37 46 48 47 51 54 62 59 53 55 55 56 57 70 88 100 105 110
53 58 52 40 39 44 33 30 36 38 28 26 57 30 10 23 36 32 31 37 37 37 45 48 40 32 31 39 40 43 42 47 53 51 53 56 57 57 66 78 87 97 106
52 64 61 50 43 46 37 33 38 47 28 30 78 75 25 3 5 19 23 35 32 33 40 51 45 41 36 33 32 36 33 34 42 48 49 53 57 55 57 66 73 79 96
60 61 58 57 51 56 50 40 43 61 52 25 46 105 110 99 337 352 15 25 24 34 32 40 44 39 39 34 25 28 29 26 31 38 44 47 53 54 52 54 57 56 65
58 66 64 57 53 53 51 45 54 58 72 46 25 42 88 133 111 16 352 3 21 33 29 39 39 35 33 29 26 30 30 24 28 37 43 44 44 49 51 49 46 41 39
41 60 66 61 56 54 55 55 54 55 63 73 57 44 48 48 64 103 34 346 1 7 19 30 35 31 26 24 20 23 28 26 31 38 39 38 35 35 40 37 31 23 10
29 44 65 62 61 59 59 63 66 66 63 70 66 62 74 72 56 83 95 8 353 339 4 19 25 19 15 15 17 24 24 24 27 29 30 28 25 22 18 14 6 356 346
78 42 64 65 63 64 67 71 70 64 62 71 69 65 64 69 98 104 100 69 18 337 350 1 7 11 13 10 7 16 16 17 19 20 21 20 18 15 10 4 358 352 345
180 155 116 91 78 74 70 74 74 68 68 71 70 68 63 43 61 92 123 117 57 2 0 338 338 3 360 357 359 12 4 9 11 12 12 13 15 15 10 5 2 356 350
163 133 117 101 83 79 75 80 77 70 73 72 71 67 62 35 41 57 85 116 124 78 343 318 330 336 343 350 357 5 357 360 5 5 8 10 9 8 6 1 357 351 346
139 125 121 114 98 84 76 78 81 75 78 66 68 67 53 33 37 41 59 73 105 133 172 289 293 308 336 357 3 3 352 0 0 0 2 4 3 2 1 357 352 345 340
145 141 147 132 117 103 90 89 95 88 86 71 65 74 57 49 46 35 47 60 67 104 125 301 305 324 353 352 348 352 352 354 349 352 351 352 353 352 349 348 346 341 335
155 156 147 134 127 119 111 113 116 103 104 93 80 78 56 57 47 33 41 43 44 85 131 314 322 335 338 332 336 343 347 348 335 338 344 348 346 342 341 340 337 333 330
150 149 140 141 143 143 134 134 126 115 113 113 112 106 89 76 49 29 41 39 18 32 81 120 314 319 319 335 344 337 337 333 330 332 337 339 337 334 332 332 329 323 320
151 156 156 156 158 155 148 141 129 119 111 108 111 121 134 133 148 133 60 42 49 42 37 42 336 326 319 320 350 337 332 329 324 328 330 329 329 330 326 324 322 319 314
158 159 152 150 154 151 156 151 145 135 126 108 70 78 118 146 150 147 114 169 108 76 36 20 339 338 328 333 327 313 318 314 309 312 321 317 321 318 315 315 315 312 311
157 149 154 152 154 162 157 155 146 135 133 133 148 312 328 8 2 3 357 353 141 141 196 192 274 283 283 281 292 304 311 332 315 307 321 304 311 305 301 296 304 307 310
156 155 163 156 161 176 169 160 153 141 144 159 180 210 318 351 7 0 345 351 343 333 292 214 231 254 263 264 273 290 285 281 276 284 305 296 304 300 297 306 313 315 316
161 166 171 171 168 197 192 179 164 141 144 180 202 199 201 264 290 288 324 341 317 307 297 275 236 251 258 251 230 247 261 282 282 284 283 285 296 293 300 301 311 320 322
168 174 175 175 179 216 209 194 170 143 157 231 243 215 201 221 267 284 334 308 313 309 303 300 293 295 298 298 295 303 313 317 305 295 288 267 288 297 291 288 302 319 320
183 180 184 191 192 207 215 209 192 161 185 235 262 263 246 239 255 261 220 235 281 286 300 313 315 315 307 303 302 269 239 266 286 290 277 269 286 311 305 284 289 305 308